Location: Noverd
(38.0910°N, 121.6877°W)
Time: 02:52:01
(UTC+00:00)

Cosmos 2100 Rocket - Pass Details

Date: 13 February 2026
Orbit: 954 x 1001 km, 82.9° (Epoch: 7 March)

Event Time Altitude Azimuth Distance (km) Brightness Sun altitude
Rises 14:04:49 0° 181° (S) 3,707 7.1 -11.2°
Reaches altitude 10° 14:07:20 10° 180° (S) 2,761 6.5 -10.8°
Maximum altitude 14:13:41 79° 95° (E) 1,019 4.3 -9.5°
Drops below altitude 10° 14:20:02 10° 9° (N) 2,765 6.4 -8.3°
Sets 14:22:33 0° 9° (N) 3,712 7.0 -7.8°
